ONEWEB-0141, 47287

Orbit data source: Space-Track

ONEWEB-0141, 47287 is a payload satellite owned by One Web (UK) in LEO that was launched on Fri, 18 Dec 2020 UTC via a SOYUZ-2-1B launch vehicle from the Vostochny Cosmodrome (VOSTO). Payload-class satellites include a variety of spacecraft equipped with specific instruments for various scientific and technological missions. These include communications satellites like Starlink; space stations such as the ISS; scientific satellites like the Hubble; Earth observation satellites from companies like Planet Labs, Umbra, and HawkEye 360; GPS; miniature CubeSats for education and research; and military/defense satellites.

Loading next visibility...
Identifier
47287, 2020-100AF
Orbit
LEO
Country
Flag of UKUK
Related business
Manufacturer
One Web
Mission
Operational Commercial Communications
Bus & Motor
ARROW, Unknown motor
Mass
148 kg wet, ~140 kg dry
Launch date (UTC)
2020-12-18 (5 years ago)
Launch vehicle
SOYUZ-2-1B
Launch site
Vostochny Cosmodrome (VOSTO)
Object type
Payload
Rocket body
Debris
Shape & HBR
Trap Box + 2 Pan, 6.7 m
Radar Cross Section
3.464 m², Large (>1 m²)

Expand to show TLE details & history
Last TLE update: 12 hours ago

TLE from 12 hours ago
0 ONEWEB-0141
1 47287U 20100AF  26095.43744995  .00000308  00000-0  82001-3 0  9993
2 47287  87.9018   5.0931 0001501  74.7183 285.4111 13.12441444255134
Epoch: 2026-04-05T10:29Z
TLE epoch observation values (Epoch: 2026-04-05T10:29:55.675Z)
Latitude
-0.00007°
Longitude
13.86824°
Altitude
1,216.317 km
Speed
7.246 km/s
True Right ascension
00h 20m 22s
True Declination
0° 00' 00"
Sunlit
Object was in daylight at epoch
Visualization orbit readout
Latitude
Unknown
Longitude
Unknown
Altitude
Unknown
Speed
Unknown
Apparent Right ascension
Unknown
Apparent Declination
Unknown
Sunlit
N/A
Visualization observer readout
Local Sidereal Time
04:54:01
Azimuth
Unknown
Elevation
Unknown
Doppler factor
Unknown
Orbital elements
Apogee altitude
1,211.985 km
Perigee altitude
1,209.707 km
Semi-major axis
7,588.983 km
Eccentricity
0.00015
Inclination
87.9018°
RAAN
5.0931°
Arg. of periapsis
74.7183°
True anomaly
285.39452°
Mean anomaly
285.4111°
Eccentric anomaly
285.40281°
Mean motion
3.28298 °/min
Orbital period
109.66 mins
BSTAR
0.00082001
Loading maneuver chart data...
Computing Atmospheric mass density...
Loading historical data...
Loading historical data...
Loading historical data...
Loading historical data...
Loading historical data...
Loading historical data...
Loading historical data...

Documentation

Showing up to 5 results
|